Precipitable_Water
0.20 0.20 0.19 0.19 0.18 0.18 0.18 0.18 0.17 0.17 0.17 0.17 0.17 0.17 0.16 0.16 0.15 0.15 0.15 0.14 0.14 0.15 0.15 0.15 0.15 0.15 0.15 0.15 0.16 0.17 0.17 0.17 0.16 0.16 0.15 0.15 0.15 0.14 0.14 0.14 0.13 0.13 0.13 0.12 0.12 0.11 0.11 0.10 0.10 0.10 0.10 0.10 0.10 0.09 0.10 0.10 0.10 0.10 0.10 0.11 0.11 0.13 0.14 0.15 0.17 0.19 0.23 0.25 0.25 0.26 0.28 0.31 0.33 0.38 0.41 0.43 0.45 0.49 0.52 0.54 0.56 0.58 0.60 0.63 0.65
0.20 0.19 0.19 0.18 0.18 0.17 0.17 0.18 0.18 0.17 0.17 0.17 0.17 0.17 0.16 0.16 0.16 0.15 0.15 0.15 0.15 0.15 0.15 0.15 0.15 0.15 0.15 0.15 0.16 0.16 0.16 0.17 0.17 0.16 0.16 0.15 0.15 0.15 0.14 0.14 0.13 0.13 0.13 0.13 0.13 0.12 0.12 0.11 0.11 0.11 0.11 0.10 0.10 0.10 0.10 0.10 0.09 0.09 0.10 0.10 0.11 0.11 0.14 0.14 0.15 0.16 0.18 0.20 0.21 0.22 0.24 0.28 0.29 0.33 0.35 0.37 0.41 0.44 0.46 0.48 0.52 0.55 0.57 0.59 0.61
0.19 0.19 0.18 0.18 0.17 0.17 0.17 0.17 0.18 0.17 0.17 0.17 0.17 0.17 0.16 0.16 0.16 0.15 0.15 0.15 0.15 0.15 0.16 0.15 0.15 0.16 0.16 0.16 0.17 0.17 0.17 0.17 0.18 0.17 0.16 0.15 0.15 0.15 0.15 0.15 0.14 0.14 0.13 0.13 0.13 0.13 0.12 0.12 0.12 0.12 0.12 0.11 0.11 0.10 0.10 0.10 0.10 0.09 0.09 0.10 0.10 0.11 0.12 0.14 0.14 0.14 0.15 0.17 0.19 0.20 0.21 0.23 0.24 0.27 0.31 0.34 0.36 0.39 0.41 0.44 0.46 0.50 0.53 0.55 0.57
0.19 0.18 0.18 0.17 0.17 0.17 0.17 0.17 0.17 0.17 0.17 0.17 0.17 0.17 0.17 0.16 0.16 0.16 0.15 0.15 0.15 0.16 0.16 0.16 0.16 0.16 0.16 0.17 0.17 0.17 0.17 0.17 0.17 0.18 0.17 0.16 0.16 0.15 0.15 0.15 0.15 0.14 0.14 0.13 0.13 0.13 0.12 0.12 0.12 0.12 0.12 0.11 0.11 0.11 0.11 0.11 0.10 0.10 0.09 0.09 0.09 0.10 0.10 0.11 0.13 0.14 0.15 0.15 0.17 0.17 0.18 0.19 0.21 0.23 0.26 0.29 0.32 0.36 0.38 0.40 0.42 0.44 0.47 0.50 0.53
0.19 0.18 0.18 0.17 0.17 0.17 0.17 0.17 0.17 0.17 0.17 0.17 0.17 0.17 0.17 0.17 0.17 0.16 0.16 0.15 0.16 0.16 0.16 0.16 0.16 0.15 0.16 0.17 0.16 0.16 0.16 0.17 0.17 0.17 0.17 0.17 0.17 0.16 0.16 0.16 0.15 0.15 0.15 0.14 0.14 0.14 0.13 0.13 0.13 0.13 0.12 0.12 0.12 0.12 0.12 0.11 0.11 0.10 0.10 0.10 0.10 0.10 0.10 0.10 0.11 0.12 0.13 0.13 0.14 0.15 0.15 0.17 0.18 0.21 0.24 0.26 0.28 0.29 0.30 0.33 0.36 0.39 0.42 0.45 0.49
0.19 0.18 0.18 0.17 0.17 0.17 0.17 0.17 0.17 0.17 0.17 0.17 0.17 0.17 0.17 0.17 0.17 0.16 0.16 0.16 0.16 0.17 0.16 0.16 0.16 0.16 0.16 0.16 0.16 0.15 0.15 0.16 0.16 0.16 0.16 0.16 0.16 0.16 0.16 0.16 0.16 0.16 0.16 0.15 0.15 0.14 0.14 0.13 0.13 0.13 0.13 0.12 0.12 0.12 0.12 0.12 0.11 0.11 0.10 0.10 0.10 0.09 0.09 0.09 0.10 0.10 0.11 0.12 0.13 0.13 0.14 0.14 0.16 0.18 0.21 0.23 0.23 0.24 0.25 0.28 0.31 0.35 0.38 0.40 0.43
0.20 0.19 0.18 0.17 0.17 0.17 0.17 0.17 0.17 0.17 0.17 0.17 0.17 0.17 0.17 0.17 0.17 0.16 0.16 0.16 0.16 0.16 0.16 0.16 0.16 0.16 0.16 0.15 0.15 0.15 0.14 0.14 0.14 0.14 0.14 0.15 0.15 0.15 0.15 0.15 0.15 0.15 0.15 0.15 0.15 0.15 0.14 0.14 0.14 0.14 0.13 0.13 0.12 0.12 0.12 0.12 0.11 0.11 0.10 0.10 0.10 0.10 0.10 0.09 0.10 0.10 0.10 0.11 0.12 0.13 0.13 0.14 0.15 0.16 0.18 0.19 0.21 0.23 0.23 0.25 0.27 0.32 0.35 0.37 0.38
0.20 0.19 0.17 0.17 0.16 0.17 0.17 0.17 0.17 0.17 0.17 0.17 0.17 0.17 0.17 0.17 0.16 0.16 0.16 0.16 0.16 0.16 0.16 0.16 0.15 0.16 0.15 0.15 0.14 0.14 0.14 0.14 0.14 0.14 0.13 0.13 0.14 0.14 0.14 0.14 0.14 0.15 0.15 0.15 0.15 0.14 0.14 0.14 0.14 0.14 0.14 0.13 0.13 0.13 0.12 0.12 0.11 0.11 0.11 0.11 0.10 0.10 0.10 0.10 0.10 0.09 0.09 0.09 0.10 0.11 0.13 0.14 0.15 0.16 0.18 0.19 0.19 0.20 0.23 0.24 0.24 0.25 0.28 0.31 0.34
0.20 0.18 0.17 0.17 0.17 0.17 0.17 0.17 0.17 0.17 0.17 0.17 0.17 0.17 0.17 0.16 0.16 0.16 0.16 0.16 0.16 0.16 0.16 0.16 0.15 0.15 0.15 0.14 0.14 0.14 0.14 0.13 0.13 0.13 0.13 0.13 0.13 0.13 0.13 0.13 0.13 0.13 0.14 0.14 0.14 0.14 0.14 0.14 0.14 0.14 0.13 0.13 0.13 0.13 0.12 0.12 0.11 0.10 0.10 0.11 0.10 0.10 0.10 0.10 0.10 0.09 0.09 0.09 0.09 0.10 0.11 0.11 0.12 0.12 0.13 0.14 0.14 0.15 0.17 0.19 0.20 0.22 0.24 0.27 0.31
0.20 0.18 0.17 0.17 0.17 0.17 0.17 0.17 0.17 0.17 0.17 0.17 0.16 0.16 0.16 0.16 0.15 0.15 0.15 0.15 0.15 0.15 0.15 0.15 0.15 0.14 0.14 0.14 0.14 0.14 0.13 0.13 0.13 0.13 0.12 0.12 0.12 0.12 0.12 0.12 0.12 0.12 0.12 0.12 0.13 0.13 0.13 0.12 0.12 0.12 0.12 0.12 0.12 0.12 0.12 0.12 0.12 0.12 0.12 0.12 0.11 0.11 0.10 0.10 0.09 0.09 0.09 0.08 0.08 0.09 0.09 0.11 0.12 0.13 0.14 0.15 0.17 0.18 0.19 0.20 0.21 0.23 0.26 0.27 0.30
0.19 0.18 0.17 0.17 0.17 0.17 0.17 0.17 0.17 0.17 0.17 0.16 0.16 0.16 0.15 0.15 0.15 0.15 0.15 0.15 0.14 0.14 0.14 0.14 0.14 0.14 0.14 0.13 0.13 0.13 0.13 0.13 0.13 0.13 0.13 0.13 0.13 0.14 0.13 0.13 0.13 0.12 0.12 0.11 0.11 0.12 0.12 0.13 0.13 0.13 0.13 0.12 0.12 0.13 0.13 0.13 0.13 0.12 0.12 0.12 0.12 0.12 0.11 0.10 0.09 0.09 0.09 0.08 0.09 0.09 0.09 0.08 0.10 0.11 0.12 0.13 0.14 0.15 0.16 0.17 0.18 0.19 0.20 0.20 0.20
0.18 0.18 0.18 0.18 0.17 0.17 0.17 0.17 0.16 0.16 0.16 0.16 0.16 0.15 0.15 0.15 0.15 0.15 0.15 0.14 0.14 0.14 0.14 0.14 0.14 0.14 0.13 0.13 0.13 0.13 0.13 0.13 0.13 0.13 0.13 0.13 0.14 0.13 0.14 0.13 0.13 0.13 0.13 0.13 0.12 0.12 0.12 0.12 0.12 0.12 0.12 0.12 0.12 0.12 0.12 0.12 0.12 0.12 0.12 0.13 0.13 0.13 0.12 0.11 0.10 0.10 0.10 0.09 0.09 0.09 0.09 0.08 0.09 0.10 0.11 0.12 0.12 0.13 0.14 0.15 0.16 0.18 0.19 0.20 0.20
0.18 0.18 0.18 0.18 0.17 0.17 0.17 0.16 0.16 0.15 0.15 0.15 0.15 0.15 0.15 0.14 0.14 0.14 0.14 0.14 0.14 0.13 0.13 0.13 0.13 0.13 0.13 0.13 0.12 0.12 0.12 0.12 0.13 0.13 0.13 0.13 0.13 0.13 0.13 0.14 0.13 0.13 0.13 0.13 0.13 0.13 0.13 0.12 0.12 0.12 0.13 0.13 0.13 0.13 0.12 0.12 0.12 0.12 0.12 0.11 0.11 0.11 0.11 0.12 0.12 0.12 0.11 0.10 0.09 0.09 0.09 0.09 0.09 0.09 0.10 0.12 0.13 0.12 0.13 0.13 0.15 0.17 0.19 0.20 0.21
0.18 0.17 0.17 0.17 0.17 0.17 0.16 0.16 0.15 0.15 0.15 0.15 0.15 0.14 0.14 0.14 0.14 0.14 0.14 0.13 0.13 0.13 0.13 0.13 0.13 0.12 0.12 0.12 0.12 0.12 0.12 0.12 0.12 0.12 0.13 0.13 0.13 0.13 0.13 0.13 0.13 0.13 0.12 0.12 0.12 0.12 0.12 0.12 0.12 0.12 0.12 0.12 0.12 0.12 0.12 0.11 0.11 0.11 0.11 0.11 0.11 0.11 0.11 0.12 0.12 0.12 0.12 0.11 0.11 0.10 0.11 0.11 0.10 0.10 0.11 0.11 0.11 0.10 0.10 0.10 0.12 0.14 0.15 0.16 0.20
0.16 0.16 0.16 0.16 0.16 0.16 0.15 0.15 0.14 0.14 0.14 0.14 0.14 0.14 0.14 0.14 0.14 0.14 0.13 0.13 0.12 0.12 0.12 0.12 0.12 0.12 0.12 0.12 0.12 0.12 0.12 0.12 0.12 0.12 0.12 0.13 0.13 0.13 0.13 0.13 0.13 0.13 0.13 0.13 0.13 0.13 0.12 0.12 0.12 0.11 0.12 0.12 0.12 0.12 0.12 0.11 0.11 0.11 0.11 0.11 0.11 0.11 0.11 0.10 0.10 0.10 0.10 0.10 0.10 0.10 0.10 0.10 0.10 0.10 0.10 0.10 0.10 0.10 0.10 0.10 0.10 0.12 0.14 0.16 0.17
0.14 0.15 0.15 0.15 0.15 0.14 0.14 0.13 0.13 0.13 0.13 0.13 0.13 0.13 0.13 0.13 0.13 0.13 0.13 0.13 0.12 0.12 0.12 0.12 0.12 0.11 0.12 0.12 0.11 0.11 0.12 0.12 0.12 0.12 0.12 0.12 0.13 0.13 0.13 0.13 0.12 0.12 0.12 0.12 0.12 0.12 0.12 0.12 0.12 0.11 0.11 0.11 0.11 0.11 0.11 0.11 0.11 0.10 0.10 0.10 0.10 0.10 0.10 0.10 0.10 0.10 0.10 0.10 0.09 0.09 0.09 0.09 0.10 0.09 0.09 0.08 0.08 0.09 0.09 0.10 0.10 0.11 0.12 0.12 0.12
0.13 0.13 0.13 0.13 0.13 0.13 0.13 0.13 0.13 0.13 0.13 0.13 0.13 0.13 0.13 0.12 0.12 0.12 0.12 0.12 0.11 0.11 0.11 0.11 0.11 0.11 0.11 0.11 0.11 0.11 0.11 0.12 0.12 0.12 0.12 0.12 0.12 0.12 0.12 0.12 0.11 0.11 0.11 0.11 0.11 0.12 0.12 0.11 0.11 0.11 0.11 0.11 0.11 0.11 0.11 0.11 0.11 0.10 0.09 0.09 0.09 0.09 0.09 0.09 0.10 0.10 0.11 0.11 0.11 0.11 0.12 0.12 0.12 0.13 0.13 0.12 0.12 0.12 0.11 0.10 0.10 0.11 0.11 0.10 0.11
0.12 0.12 0.12 0.12 0.12 0.13 0.13 0.12 0.12 0.12 0.12 0.12 0.12 0.12 0.12 0.12 0.12 0.12 0.11 0.11 0.11 0.11 0.11 0.11 0.11 0.11 0.11 0.11 0.11 0.11 0.11 0.11 0.11 0.11 0.11 0.12 0.12 0.11 0.11 0.11 0.10 0.10 0.10 0.11 0.11 0.11 0.11 0.11 0.11 0.11 0.11 0.11 0.11 0.11 0.11 0.11 0.10 0.10 0.10 0.09 0.09 0.09 0.10 0.10 0.10 0.10 0.10 0.11 0.11 0.11 0.12 0.12 0.12 0.13 0.14 0.14 0.15 0.15 0.13 0.11 0.11 0.12 0.11 0.11 0.10
0.11 0.11 0.12 0.12 0.13 0.12 0.12 0.12 0.12 0.12 0.12 0.12 0.12 0.11 0.11 0.11 0.11 0.11 0.11 0.11 0.10 0.11 0.10 0.10 0.10 0.10 0.10 0.10 0.10 0.10 0.10 0.11 0.11 0.11 0.11 0.11 0.11 0.11 0.11 0.10 0.10 0.09 0.10 0.10 0.10 0.10 0.10 0.11 0.11 0.11 0.11 0.11 0.11 0.11 0.12 0.11 0.11 0.10 0.10 0.10 0.09 0.08 0.09 0.09 0.09 0.09 0.09 0.09 0.09 0.09 0.09 0.09 0.10 0.09 0.09 0.10 0.11 0.12 0.12 0.12 0.12 0.11 0.10 0.10 0.11
0.11 0.12 0.12 0.12 0.12 0.11 0.11 0.11 0.12 0.11 0.11 0.11 0.11 0.11 0.11 0.10 0.10 0.10 0.10 0.10 0.10 0.10 0.10 0.10 0.10 0.10 0.10 0.10 0.10 0.10 0.10 0.10 0.10 0.10 0.10 0.11 0.11 0.11 0.11 0.10 0.09 0.09 0.10 0.10 0.10 0.10 0.10 0.10 0.11 0.11 0.11 0.11 0.12 0.12 0.12 0.12 0.12 0.11 0.11 0.10 0.09 0.09 0.10 0.10 0.10 0.10 0.09 0.10 0.09 0.10 0.10 0.10 0.10 0.10 0.10 0.10 0.10 0.10 0.10 0.11 0.12 0.12 0.11 0.10 0.10
0.11 0.11 0.11 0.11 0.11 0.11 0.11 0.11 0.11 0.11 0.11 0.10 0.10 0.10 0.10 0.10 0.10 0.10 0.10 0.10 0.09 0.09 0.09 0.09 0.09 0.09 0.10 0.10 0.10 0.10 0.10 0.10 0.10 0.10 0.10 0.10 0.11 0.11 0.10 0.10 0.10 0.10 0.09 0.09 0.09 0.09 0.09 0.10 0.10 0.10 0.10 0.11 0.11 0.11 0.11 0.12 0.12 0.12 0.12 0.11 0.11 0.11 0.12 0.11 0.10 0.11 0.10 0.10 0.10 0.10 0.11 0.11 0.10 0.10 0.10 0.10 0.11 0.11 0.11 0.11 0.11 0.11 0.11 0.10 0.10
0.10 0.10 0.10 0.10 0.10 0.10 0.10 0.10 0.10 0.10 0.10 0.10 0.10 0.10 0.10 0.10 0.10 0.09 0.09 0.09 0.09 0.09 0.09 0.09 0.09 0.09 0.09 0.09 0.09 0.09 0.10 0.10 0.09 0.09 0.10 0.10 0.10 0.10 0.10 0.10 0.10 0.10 0.09 0.09 0.09 0.09 0.09 0.09 0.10 0.10 0.10 0.10 0.11 0.11 0.11 0.11 0.12 0.12 0.11 0.11 0.12 0.12 0.12 0.12 0.12 0.12 0.11 0.11 0.11 0.11 0.11 0.11 0.11 0.11 0.11 0.11 0.11 0.11 0.12 0.12 0.12 0.12 0.11 0.10 0.10
0.10 0.10 0.10 0.10 0.09 0.10 0.10 0.10 0.10 0.10 0.10 0.10 0.10 0.09 0.09 0.09 0.09 0.09 0.09 0.08 0.08 0.08 0.08 0.08 0.08 0.08 0.08 0.09 0.09 0.09 0.09 0.09 0.09 0.09 0.09 0.09 0.10 0.10 0.10 0.10 0.10 0.10 0.10 0.09 0.09 0.09 0.09 0.10 0.10 0.10 0.10 0.10 0.11 0.11 0.11 0.11 0.11 0.11 0.12 0.12 0.12 0.12 0.12 0.12 0.12 0.11 0.11 0.11 0.10 0.10 0.11 0.11 0.11 0.11 0.11 0.11 0.12 0.12 0.12 0.12 0.12 0.13 0.13 0.13 0.13
0.09 0.09 0.09 0.09 0.09 0.09 0.09 0.09 0.09 0.09 0.09 0.09 0.09 0.09 0.09 0.09 0.08 0.08 0.08 0.08 0.08 0.08 0.08 0.08 0.08 0.08 0.08 0.08 0.08 0.08 0.09 0.09 0.09 0.09 0.09 0.09 0.09 0.09 0.10 0.10 0.10 0.10 0.10 0.09 0.09 0.09 0.09 0.09 0.09 0.09 0.10 0.10 0.11 0.11 0.11 0.11 0.11 0.11 0.12 0.12 0.12 0.12 0.12 0.12 0.11 0.10 0.10 0.10 0.10 0.10 0.11 0.11 0.11 0.11 0.12 0.12 0.12 0.12 0.12 0.13 0.13 0.14 0.14 0.14 0.15
0.08 0.08 0.08 0.08 0.08 0.08 0.08 0.09 0.09 0.09 0.09 0.09 0.08 0.08 0.08 0.08 0.08 0.08 0.08 0.08 0.08 0.07 0.07 0.08 0.07 0.07 0.08 0.08 0.08 0.08 0.08 0.08 0.08 0.08 0.08 0.08 0.08 0.09 0.09 0.09 0.09 0.09 0.09 0.09 0.09 0.10 0.10 0.10 0.10 0.10 0.10 0.10 0.11 0.11 0.11 0.11 0.11 0.12 0.12 0.11 0.11 0.11 0.11 0.11 0.10 0.10 0.09 0.09 0.09 0.10 0.11 0.11 0.12 0.12 0.13 0.13 0.14 0.14 0.14 0.14 0.14 0.14 0.15 0.15 0.16
0.07 0.07 0.07 0.08 0.08 0.08 0.08 0.08 0.08 0.09 0.09 0.09 0.08 0.08 0.08 0.08 0.07 0.07 0.07 0.07 0.07 0.07 0.07 0.07 0.07 0.07 0.07 0.07 0.07 0.07 0.07 0.07 0.08 0.08 0.08 0.08 0.08 0.08 0.08 0.08 0.08 0.09 0.09 0.09 0.09 0.09 0.09 0.09 0.09 0.10 0.10 0.10 0.10 0.10 0.10 0.10 0.10 0.10 0.10 0.11 0.11 0.11 0.11 0.10 0.10 0.09 0.08 0.09 0.09 0.10 0.11 0.11 0.11 0.12 0.12 0.12 0.11 0.11 0.10 0.10 0.11 0.11 0.11 0.10 0.11
0.07 0.07 0.07 0.07 0.07 0.07 0.08 0.08 0.08 0.08 0.08 0.08 0.08 0.08 0.08 0.08 0.07 0.07 0.07 0.07 0.07 0.07 0.07 0.07 0.07 0.07 0.07 0.07 0.07 0.07 0.07 0.07 0.07 0.07 0.08 0.08 0.08 0.08 0.08 0.08 0.09 0.09 0.08 0.09 0.09 0.09 0.09 0.09 0.09 0.10 0.10 0.10 0.10 0.10 0.10 0.11 0.11 0.11 0.11 0.11 0.11 0.10 0.10 0.10 0.09 0.09 0.09 0.10 0.10 0.10 0.11 0.11 0.11 0.11 0.11 0.11 0.10 0.10 0.11 0.10 0.10 0.11 0.11 0.11 0.10
0.07 0.07 0.07 0.07 0.07 0.07 0.07 0.07 0.07 0.07 0.08 0.08 0.07 0.07 0.07 0.07 0.07 0.07 0.07 0.07 0.06 0.06 0.06 0.06 0.06 0.06 0.06 0.06 0.07 0.07 0.07 0.07 0.07 0.07 0.07 0.07 0.07 0.07 0.07 0.08 0.08 0.08 0.08 0.08 0.08 0.09 0.09 0.09 0.09 0.09 0.09 0.09 0.09 0.09 0.09 0.10 0.10 0.10 0.10 0.10 0.10 0.10 0.10 0.10 0.11 0.11 0.11 0.10 0.10 0.10 0.10 0.09 0.09 0.09 0.10 0.10 0.10 0.10 0.10 0.10 0.10 0.10 0.11 0.11 0.11
0.07 0.07 0.07 0.07 0.07 0.07 0.07 0.07 0.07 0.07 0.07 0.07 0.07 0.07 0.07 0.07 0.07 0.07 0.07 0.07 0.07 0.07 0.06 0.06 0.06 0.07 0.07 0.06 0.06 0.06 0.06 0.06 0.07 0.07 0.07 0.07 0.07 0.07 0.07 0.07 0.08 0.08 0.08 0.08 0.08 0.08 0.08 0.08 0.08 0.08 0.08 0.08 0.08 0.09 0.09 0.09 0.09 0.09 0.09 0.09 0.09 0.09 0.10 0.10 0.09 0.09 0.09 0.09 0.09 0.09 0.09 0.10 0.10 0.10 0.10 0.10 0.10 0.10 0.10 0.10 0.10 0.10 0.11 0.12 0.10
0.06 0.06 0.07 0.07 0.07 0.07 0.07 0.07 0.07 0.07 0.07 0.07 0.07 0.07 0.07 0.07 0.07 0.07 0.07 0.07 0.07 0.07 0.07 0.07 0.07 0.07 0.07 0.07 0.07 0.06 0.06 0.07 0.07 0.07 0.07 0.07 0.07 0.07 0.07 0.07 0.08 0.08 0.08 0.08 0.08 0.08 0.08 0.08 0.08 0.07 0.07 0.08 0.08 0.08 0.08 0.08 0.08 0.09 0.09 0.09 0.10 0.10 0.09 0.09 0.09 0.09 0.09 0.09 0.09 0.09 0.09 0.09 0.09 0.09 0.09 0.09 0.09 0.09 0.10 0.10 0.10 0.11 0.11 0.10 0.10
0.06 0.06 0.06 0.06 0.06 0.06 0.06 0.06 0.07 0.07 0.06 0.06 0.06 0.06 0.06 0.07 0.07 0.07 0.07 0.07 0.07 0.07 0.07 0.07 0.07 0.07 0.07 0.07 0.07 0.07 0.07 0.07 0.07 0.07 0.07 0.07 0.07 0.07 0.07 0.07 0.07 0.07 0.08 0.08 0.08 0.08 0.07 0.07 0.07 0.07 0.07 0.08 0.07 0.08 0.08 0.08 0.09 0.09 0.09 0.09 0.09 0.09 0.09 0.09 0.09 0.09 0.08 0.08 0.08 0.08 0.09 0.09 0.08 0.09 0.08 0.08 0.09 0.09 0.09 0.10 0.10 0.10 0.10 0.10 0.10
0.06 0.06 0.06 0.06 0.06 0.06 0.06 0.06 0.06 0.06 0.06 0.06 0.06 0.06 0.06 0.06 0.06 0.06 0.07 0.07 0.07 0.07 0.07 0.07 0.07 0.07 0.07 0.07 0.06 0.07 0.07 0.07 0.07 0.07 0.07 0.07 0.07 0.07 0.07 0.07 0.07 0.07 0.07 0.08 0.07 0.07 0.07 0.07 0.07 0.07 0.07 0.07 0.07 0.07 0.08 0.08 0.09 0.09 0.09 0.08 0.08 0.08 0.08 0.08 0.08 0.08 0.08 0.08 0.08 0.08 0.08 0.08 0.08 0.08 0.08 0.08 0.09 0.09 0.09 0.09 0.09 0.09 0.09 0.10 0.09
0.06 0.06 0.06 0.06 0.06 0.06 0.06 0.06 0.06 0.06 0.06 0.06 0.06 0.06 0.06 0.06 0.05 0.06 0.06 0.06 0.06 0.06 0.06 0.06 0.06 0.06 0.06 0.06 0.06 0.06 0.06 0.06 0.07 0.07 0.07 0.07 0.07 0.07 0.07 0.07 0.07 0.07 0.07 0.07 0.07 0.07 0.07 0.07 0.06 0.06 0.06 0.07 0.07 0.07 0.08 0.08 0.09 0.09 0.09 0.08 0.08 0.08 0.08 0.09 0.09 0.08 0.08 0.08 0.08 0.08 0.08 0.08 0.08 0.08 0.08 0.09 0.08 0.08 0.08 0.08 0.09 0.09 0.09 0.09 0.08
0.06 0.06 0.06 0.06 0.06 0.06 0.06 0.06 0.06 0.06 0.06 0.06 0.06 0.06 0.06 0.06 0.06 0.05 0.05 0.05 0.06 0.06 0.06 0.06 0.06 0.06 0.06 0.06 0.06 0.06 0.06 0.06 0.06 0.06 0.06 0.06 0.07 0.07 0.06 0.07 0.07 0.07 0.07 0.07 0.07 0.06 0.06 0.06 0.06 0.07 0.07 0.07 0.07 0.07 0.08 0.08 0.09 0.09 0.09 0.08 0.08 0.08 0.09 0.09 0.08 0.08 0.08 0.08 0.08 0.08 0.09 0.09 0.09 0.08 0.08 0.08 0.08 0.08 0.08 0.08 0.09 0.08 0.08 0.08 0.08
0.06 0.06 0.06 0.06 0.06 0.06 0.06 0.06 0.06 0.06 0.06 0.06 0.06 0.06 0.06 0.06 0.06 0.05 0.05 0.05 0.05 0.05 0.05 0.05 0.06 0.06 0.06 0.06 0.06 0.06 0.06 0.06 0.06 0.06 0.06 0.06 0.06 0.06 0.06 0.06 0.06 0.06 0.06 0.06 0.06 0.06 0.06 0.06 0.06 0.06 0.07 0.07 0.08 0.08 0.08 0.09 0.09 0.08 0.08 0.08 0.08 0.08 0.08 0.08 0.08 0.08 0.08 0.08 0.08 0.08 0.08 0.08 0.09 0.09 0.08 0.08 0.08 0.08 0.08 0.08 0.08 0.08 0.08 0.08 0.08
0.06 0.06 0.06 0.06 0.06 0.06 0.06 0.06 0.06 0.06 0.06 0.06 0.06 0.06 0.06 0.05 0.05 0.05 0.05 0.05 0.05 0.05 0.05 0.05 0.05 0.05 0.06 0.06 0.06 0.06 0.06 0.06 0.06 0.06 0.06 0.06 0.06 0.06 0.06 0.06 0.06 0.06 0.06 0.06 0.06 0.06 0.06 0.07 0.07 0.07 0.07 0.07 0.07 0.08 0.08 0.08 0.08 0.08 0.08 0.08 0.08 0.08 0.08 0.08 0.08 0.08 0.08 0.08 0.08 0.08 0.08 0.09 0.09 0.09 0.09 0.08 0.08 0.08 0.08 0.08 0.08 0.08 0.08 0.08 0.08
0.06 0.06 0.06 0.06 0.06 0.06 0.06 0.06 0.06 0.06 0.06 0.06 0.06 0.06 0.05 0.05 0.05 0.05 0.05 0.05 0.05 0.05 0.05 0.05 0.05 0.05 0.05 0.05 0.05 0.05 0.06 0.06 0.06 0.06 0.06 0.06 0.06 0.06 0.06 0.06 0.06 0.06 0.06 0.06 0.06 0.06 0.06 0.06 0.07 0.07 0.07 0.07 0.08 0.08 0.08 0.08 0.08 0.08 0.08 0.08 0.08 0.08 0.08 0.08 0.08 0.08 0.08 0.08 0.08 0.08 0.08 0.08 0.09 0.09 0.08 0.08 0.08 0.08 0.08 0.08 0.08 0.08 0.08 0.08 0.08
0.06 0.06 0.06 0.06 0.06 0.06 0.06 0.06 0.06 0.06 0.06 0.06 0.06 0.05 0.05 0.05 0.05 0.05 0.05 0.05 0.05 0.04 0.04 0.04 0.04 0.04 0.04 0.05 0.05 0.05 0.05 0.05 0.05 0.05 0.05 0.05 0.06 0.06 0.06 0.06 0.06 0.06 0.06 0.06 0.06 0.06 0.06 0.06 0.07 0.07 0.07 0.07 0.07 0.08 0.08 0.08 0.08 0.08 0.08 0.08 0.08 0.08 0.09 0.08 0.08 0.08 0.08 0.08 0.08 0.08 0.08 0.09 0.09 0.09 0.09 0.08 0.08 0.08 0.08 0.08 0.08 0.08 0.08 0.08 0.08
0.06 0.06 0.06 0.06 0.06 0.06 0.06 0.05 0.05 0.05 0.05 0.05 0.05 0.05 0.05 0.05 0.05 0.04 0.04 0.04 0.04 0.04 0.04 0.04 0.04 0.04 0.04 0.04 0.04 0.05 0.05 0.04 0.05 0.05 0.05 0.05 0.05 0.05 0.05 0.05 0.05 0.06 0.06 0.06 0.06 0.06 0.06 0.06 0.07 0.07 0.07 0.07 0.07 0.07 0.07 0.07 0.08 0.08 0.08 0.08 0.09 0.09 0.08 0.08 0.08 0.08 0.08 0.08 0.08 0.08 0.08 0.09 0.09 0.09 0.09 0.08 0.08 0.08 0.08 0.08 0.08 0.08 0.08 0.08 0.08
0.05 0.05 0.05 0.05 0.05 0.05 0.05 0.05 0.05 0.05 0.05 0.05 0.05 0.05 0.05 0.05 0.04 0.04 0.04 0.04 0.04 0.04 0.04 0.04 0.04 0.04 0.04 0.04 0.04 0.04 0.04 0.04 0.04 0.04 0.05 0.05 0.05 0.05 0.05 0.05 0.05 0.06 0.06 0.06 0.06 0.06 0.06 0.06 0.07 0.07 0.07 0.07 0.07 0.07 0.08 0.08 0.08 0.08 0.08 0.08 0.08 0.08 0.09 0.09 0.08 0.08 0.08 0.08 0.08 0.08 0.08 0.08 0.09 0.09 0.09 0.09 0.08 0.09 0.08 0.08 0.08 0.08 0.08 0.08 0.08
0.05 0.05 0.05 0.05 0.05 0.05 0.05 0.05 0.05 0.05 0.05 0.05 0.05 0.05 0.05 0.05 0.04 0.04 0.04 0.04 0.04 0.04 0.04 0.04 0.04 0.04 0.04 0.04 0.04 0.04 0.04 0.04 0.04 0.04 0.04 0.05 0.05 0.05 0.05 0.05 0.05 0.06 0.06 0.06 0.06 0.06 0.06 0.06 0.06 0.07 0.07 0.07 0.07 0.07 0.07 0.08 0.08 0.08 0.08 0.08 0.08 0.08 0.08 0.08 0.08 0.08 0.08 0.08 0.08 0.08 0.08 0.08 0.08 0.08 0.08 0.08 0.09 0.08 0.08 0.08 0.08 0.08 0.08 0.08 0.08
0.05 0.05 0.05 0.05 0.05 0.05 0.05 0.05 0.05 0.05 0.05 0.05 0.05 0.05 0.04 0.04 0.04 0.04 0.04 0.04 0.04 0.04 0.04 0.04 0.04 0.04 0.04 0.04 0.04 0.04 0.04 0.04 0.04 0.04 0.04 0.04 0.05 0.05 0.05 0.05 0.05 0.06 0.06 0.06 0.06 0.06 0.06 0.06 0.06 0.07 0.07 0.07 0.07 0.07 0.07 0.07 0.08 0.08 0.08 0.08 0.08 0.08 0.08 0.08 0.08 0.08 0.08 0.08 0.08 0.08 0.08 0.08 0.08 0.08 0.08 0.08 0.08 0.08 0.08 0.08 0.08 0.09 0.08 0.08 0.08
0.04 0.04 0.04 0.04 0.04 0.04 0.04 0.04 0.04 0.04 0.04 0.04 0.04 0.04 0.04 0.04 0.04 0.04 0.04 0.04 0.04 0.04 0.04 0.04 0.04 0.04 0.04 0.04 0.04 0.04 0.04 0.04 0.04 0.04 0.04 0.04 0.04 0.05 0.05 0.05 0.05 0.06 0.06 0.06 0.06 0.06 0.06 0.06 0.06 0.07 0.07 0.07 0.07 0.07 0.07 0.07 0.07 0.08 0.08 0.08 0.08 0.08 0.08 0.08 0.08 0.08 0.08 0.08 0.08 0.08 0.08 0.08 0.08 0.08 0.08 0.08 0.08 0.08 0.08 0.08 0.08 0.09 0.08 0.08 0.08
0.04 0.04 0.04 0.04 0.04 0.04 0.04 0.04 0.04 0.04 0.04 0.04 0.04 0.04 0.04 0.04 0.04 0.04 0.04 0.04 0.04 0.04 0.04 0.04 0.04 0.04 0.04 0.04 0.04 0.04 0.04 0.04 0.04 0.04 0.04 0.04 0.04 0.04 0.05 0.05 0.05 0.06 0.06 0.06 0.06 0.06 0.06 0.06 0.06 0.06 0.07 0.07 0.07 0.07 0.07 0.07 0.08 0.08 0.08 0.08 0.08 0.08 0.08 0.08 0.08 0.08 0.08 0.08 0.08 0.08 0.08 0.08 0.08 0.08 0.08 0.08 0.08 0.08 0.08 0.08 0.08 0.08 0.08 0.08 0.08
0.04 0.04 0.04 0.04 0.04 0.04 0.04 0.04 0.04 0.04 0.04 0.04 0.04 0.04 0.04 0.04 0.04 0.04 0.04 0.04 0.04 0.04 0.04 0.04 0.04 0.04 0.04 0.04 0.04 0.04 0.04 0.04 0.04 0.04 0.04 0.04 0.04 0.04 0.05 0.05 0.05 0.05 0.06 0.06 0.06 0.06 0.06 0.06 0.06 0.06 0.06 0.07 0.07 0.07 0.07 0.07 0.08 0.08 0.08 0.08 0.08 0.08 0.08 0.08 0.08 0.08 0.08 0.08 0.08 0.08 0.08 0.08 0.08 0.08 0.08 0.08 0.08 0.08 0.08 0.08 0.08 0.08 0.08 0.08 0.08
0.04 0.04 0.04 0.04 0.04 0.04 0.04 0.04 0.04 0.04 0.04 0.04 0.04 0.04 0.04 0.04 0.04 0.04 0.04 0.04 0.04 0.04 0.04 0.04 0.04 0.04 0.04 0.04 0.04 0.04 0.04 0.04 0.04 0.04 0.04 0.04 0.04 0.04 0.04 0.05 0.05 0.05 0.06 0.06 0.06 0.06 0.06 0.06 0.06 0.06 0.06 0.07 0.07 0.07 0.07 0.07 0.08 0.08 0.08 0.08 0.08 0.08 0.08 0.08 0.08 0.08 0.08 0.08 0.08 0.08 0.08 0.08 0.08 0.08 0.08 0.08 0.08 0.08 0.08 0.08 0.08 0.08 0.08 0.08 0.08
0.04 0.04 0.04 0.04 0.04 0.04 0.04 0.04 0.04 0.04 0.04 0.04 0.04 0.04 0.04 0.04 0.04 0.04 0.04 0.04 0.04 0.04 0.04 0.04 0.04 0.04 0.04 0.04 0.04 0.04 0.04 0.04 0.04 0.04 0.04 0.04 0.04 0.04 0.04 0.05 0.05 0.05 0.05 0.06 0.06 0.06 0.06 0.06 0.06 0.06 0.06 0.07 0.07 0.07 0.07 0.07 0.07 0.08 0.08 0.08 0.08 0.08 0.08 0.08 0.08 0.08 0.08 0.08 0.08 0.08 0.07 0.07 0.07 0.08 0.08 0.08 0.08 0.08 0.08 0.08 0.08 0.08 0.08 0.08 0.08
0.04 0.04 0.04 0.04 0.04 0.04 0.04 0.04 0.04 0.04 0.04 0.04 0.04 0.04 0.04 0.04 0.04 0.04 0.04 0.04 0.04 0.04 0.04 0.04 0.04 0.04 0.04 0.04 0.04 0.04 0.04 0.04 0.04 0.04 0.04 0.04 0.04 0.04 0.04 0.04 0.05 0.05 0.05 0.06 0.06 0.06 0.06 0.06 0.06 0.06 0.06 0.07 0.07 0.07 0.07 0.07 0.07 0.07 0.08 0.08 0.08 0.08 0.08 0.08 0.08 0.08 0.08 0.08 0.08 0.08 0.07 0.07 0.07 0.08 0.08 0.08 0.08 0.08 0.08 0.08 0.08 0.08 0.08 0.08 0.08
0.04 0.04 0.04 0.04 0.03 0.03 0.03 0.03 0.03 0.03 0.03 0.03 0.03 0.03 0.03 0.03 0.03 0.03 0.03 0.04 0.04 0.04 0.04 0.04 0.04 0.04 0.04 0.04 0.04 0.04 0.04 0.04 0.04 0.04 0.04 0.04 0.04 0.04 0.04 0.04 0.05 0.05 0.05 0.05 0.06 0.06 0.06 0.06 0.06 0.06 0.06 0.07 0.07 0.07 0.07 0.07 0.07 0.07 0.08 0.08 0.08 0.08 0.08 0.08 0.08 0.08 0.08 0.08 0.08 0.07 0.07 0.07 0.07 0.07 0.08 0.08 0.08 0.08 0.08 0.08 0.08 0.08 0.08 0.08 0.08
0.04 0.04 0.03 0.03 0.03 0.03 0.03 0.03 0.03 0.03 0.03 0.03 0.03 0.03 0.03 0.03 0.03 0.03 0.03 0.03 0.03 0.03 0.04 0.04 0.04 0.04 0.04 0.04 0.04 0.04 0.04 0.04 0.04 0.04 0.04 0.04 0.04 0.04 0.04 0.04 0.04 0.05 0.05 0.05 0.06 0.06 0.06 0.06 0.06 0.06 0.06 0.07 0.07 0.07 0.07 0.07 0.07 0.07 0.07 0.08 0.08 0.08 0.08 0.08 0.08 0.08 0.08 0.08 0.07 0.07 0.07 0.07 0.07 0.07 0.08 0.08 0.08 0.08 0.08 0.08 0.08 0.08 0.07 0.07 0.07
0.03 0.03 0.03 0.03 0.03 0.03 0.03 0.03 0.03 0.03 0.03 0.03 0.03 0.03 0.03 0.03 0.03 0.03 0.03 0.03 0.03 0.03 0.03 0.03 0.03 0.04 0.04 0.04 0.04 0.04 0.04 0.04 0.04 0.04 0.04 0.04 0.04 0.04 0.04 0.04 0.04 0.05 0.05 0.05 0.06 0.06 0.06 0.06 0.06 0.06 0.06 0.07 0.07 0.07 0.07 0.07 0.07 0.07 0.07 0.07 0.07 0.08 0.08 0.08 0.08 0.08 0.08 0.07 0.07 0.07 0.07 0.07 0.07 0.07 0.07 0.07 0.07 0.07 0.07 0.07 0.07 0.07 0.07 0.07 0.07
Wind_Speed
53 53 53 54 54 54 54 54 54 54 54 54 54 54 54 53 52 52 51 50 48 47 46 45 44 42 42 41 41 40 40 39 39 39 38 38 37 37 37 36 37 37 38 39 39 40 41 43 43 44 45 46 47 48 49 50 51 52 52 53 53 53 53 53 54 54 54 53 54 54 54 53 53 53 53 52 52 51 52 52 53 53 53 54 55
54 54 54 54 55 55 55 55 55 55 55 54 54 54 54 53 52 52 51 49 48 47 45 44 43 42 41 41 40 40 40 39 39 39 39 38 38 37 37 37 37 37 38 38 39 40 41 42 43 43 44 45 46 47 48 49 51 52 53 54 54 54 55 55 55 56 56 55 55 56 55 55 55 55 54 54 54 53 53 53 53 54 54 54 54
56 56 56 56 56 56 56 56 56 56 55 55 55 55 54 53 52 51 50 49 48 46 45 44 43 42 41 40 40 39 39 39 38 39 39 39 38 38 38 38 38 38 38 38 38 39 40 41 42 43 44 45 46 47 47 48 50 51 52 54 55 55 55 56 56 56 57 57 56 56 56 56 56 56 56 55 55 55 54 54 54 54 54 54 54
57 57 57 57 57 57 57 56 56 56 56 56 56 55 55 54 53 52 50 49 47 45 45 44 43 41 41 40 39 39 38 38 38 38 38 38 38 38 38 38 38 38 38 38 38 38 39 40 41 42 43 45 46 46 47 48 49 50 52 53 55 56 56 56 57 57 57 57 57 57 57 58 58 57 57 57 56 56 55 55 55 55 55 55 55
59 59 58 58 57 57 57 57 57 57 57 57 57 56 55 54 53 51 50 48 46 45 44 43 42 41 40 40 39 39 38 38 38 38 38 38 39 39 38 39 39 38 38 38 38 38 38 40 41 42 43 44 45 46 47 48 49 50 51 52 54 55 56 57 58 58 58 58 58 58 58 59 59 58 58 58 57 57 56 56 56 55 55 56 56
60 60 59 58 58 58 58 58 58 58 58 57 57 56 55 53 52 51 49 47 46 44 43 42 41 40 40 39 39 39 39 39 39 39 39 39 40 39 39 39 39 39 38 38 38 38 38 39 40 41 42 44 45 46 47 48 49 50 51 52 53 54 56 57 58 59 59 59 59 59 58 59 59 59 59 59 59 58 57 57 57 56 56 56 56
62 61 60 59 59 59 59 58 59 59 58 57 57 55 54 53 51 50 48 46 45 44 43 42 41 40 40 39 39 39 39 39 39 40 40 41 41 41 41 41 40 40 40 39 39 39 40 40 41 41 42 43 45 46 47 48 49 50 51 52 52 53 55 56 57 58 59 59 59 59 58 58 57 57 58 58 59 59 58 57 57 56 56 56 56
62 61 60 59 59 59 59 59 59 58 57 57 56 55 53 52 50 48 47 46 45 44 43 42 41 41 40 40 40 39 39 39 39 40 40 41 42 42 42 42 42 42 41 41 41 41 41 41 42 42 42 43 44 45 46 48 49 50 51 51 52 52 53 54 55 56 58 59 59 58 58 58 58 57 57 57 58 59 59 59 58 57 56 56 56
63 61 60 60 60 60 60 60 59 58 57 56 55 54 52 51 49 48 47 46 45 43 42 42 41 40 40 40 40 40 40 40 40 40 41 41 42 42 43 43 44 43 43 43 43 43 43 43 43 44 44 45 45 46 47 48 48 49 49 50 51 51 52 52 53 54 56 57 58 58 58 59 59 58 57 57 57 58 59 60 61 60 58 57 57
62 61 60 60 60 60 60 59 58 57 57 56 54 53 51 50 49 48 47 46 44 43 42 41 41 40 40 40 40 40 40 40 40 41 41 41 41 41 42 43 43 44 44 44 44 44 44 44 45 45 46 46 46 46 47 47 47 48 48 49 50 51 52 52 52 53 54 56 57 58 58 58 58 57 57 57 57 57 57 59 60 60 60 59 57
62 61 60 60 60 60 59 59 58 57 56 54 53 52 50 49 48 47 46 45 43 42 41 41 40 40 40 40 39 40 39 39 40 41 41 41 40 40 41 42 42 43 43 43 43 43 43 44 44 44 44 45 45 45 46 46 46 47 48 49 50 51 52 52 53 53 53 54 56 57 58 59 59 58 59 59 59 59 58 59 60 61 61 61 60
61 61 61 61 60 60 59 58 57 56 54 53 51 50 48 47 46 45 44 43 42 41 41 40 40 40 40 39 39 39 39 40 40 41 40 40 40 40 40 41 41 41 42 42 42 42 42 43 43 43 43 43 43 44 44 45 46 46 47 48 49 51 51 52 53 53 53 54 55 56 57 59 59 59 59 59 59 59 59 59 60 60 61 62 62
61 61 60 60 59 59 58 57 56 55 53 52 50 48 47 46 45 44 43 42 41 41 40 40 40 39 39 39 39 39 39 40 40 40 40 40 41 40 40 40 41 41 41 41 42 42 42 42 42 42 42 42 42 42 43 44 44 45 46 46 48 49 50 52 53 53 54 54 54 55 56 57 58 59 59 59 60 60 60 60 60 60 61 61 62
61 61 60 59 58 57 56 55 54 53 52 50 49 47 46 45 44 43 43 42 41 41 40 40 40 39 39 39 39 39 39 39 40 40 39 39 40 40 40 40 41 41 41 41 41 42 42 42 41 41 41 41 42 42 42 43 43 44 44 45 46 47 48 49 51 52 53 54 54 55 55 55 57 58 59 60 61 62 62 62 62 63 63 63 63
61 60 58 57 56 55 55 54 53 52 51 49 47 46 45 44 43 43 42 41 40 40 40 39 39 39 39 39 38 38 38 38 39 39 39 39 39 39 39 39 40 40 40 40 40 41 41 41 41 41 41 41 41 41 41 41 42 42 43 44 44 45 46 47 49 51 52 53 55 56 55 56 57 59 60 61 62 64 64 64 64 65 66 66 66
61 59 57 56 55 54 54 53 52 51 49 47 45 44 44 43 42 41 41 40 40 39 39 39 39 38 38 38 38 38 37 38 38 38 38 38 39 38 38 39 39 39 40 40 40 40 40 40 40 40 40 40 40 41 41 41 41 42 43 43 44 45 46 47 48 50 51 52 54 55 56 57 58 59 59 60 61 61 63 64 64 65 66 67 67
60 58 57 56 55 53 52 51 50 49 47 45 44 43 42 41 41 40 40 40 40 39 39 38 38 38 38 37 37 37 36 37 37 38 38 38 38 37 38 38 39 39 39 39 39 39 39 39 39 39 39 39 39 40 40 41 41 41 42 42 43 44 44 44 46 47 49 50 51 52 53 54 56 57 57 58 59 60 61 63 64 64 65 66 67
59 58 57 55 53 51 50 49 48 47 45 44 43 41 40 40 39 39 39 39 39 39 38 38 37 37 37 36 36 36 36 36 36 37 37 37 37 37 37 38 38 38 38 37 37 37 37 37 37 37 37 37 38 39 39 39 40 40 40 41 41 42 42 42 43 44 45 46 47 49 50 51 52 54 55 56 58 59 60 61 62 62 64 65 66
59 57 55 52 50 49 49 48 47 45 43 41 40 39 39 39 39 39 39 39 38 38 37 37 36 36 35 35 35 35 35 35 35 36 37 37 37 36 36 37 37 36 36 36 36 36 36 36 36 36 36 36 37 38 38 38 39 39 39 40 40 41 40 41 42 42 43 44 45 46 47 48 49 50 51 53 55 57 58 60 60 60 61 63 64
57 54 52 50 50 49 48 46 44 42 40 39 38 38 38 38 38 38 37 37 37 36 36 35 35 34 34 34 34 34 34 34 35 36 36 36 36 36 35 35 35 35 35 35 34 34 34 34 35 35 36 36 36 37 38 38 38 39 39 39 40 40 40 40 41 42 42 43 44 44 45 45 46 47 48 49 51 53 56 58 59 60 61 62 63
55 52 51 50 49 47 44 42 40 39 39 38 38 38 38 37 37 36 36 35 35 35 35 35 34 34 34 34 34 33 34 34 34 35 35 35 35 35 34 34 34 34 34 34 34 34 34 34 34 34 35 35 35 36 36 37 38 38 38 38 39 39 40 40 41 41 42 43 43 44 44 45 45 45 46 47 48 49 51 53 56 58 60 62 63
53 51 49 48 46 43 41 40 40 39 39 39 38 37 36 36 35 35 34 34 34 34 34 34 33 33 33 33 33 32 33 33 33 33 33 33 33 34 33 33 33 33 33 33 33 33 33 33 33 33 34 34 35 35 36 36 37 36 37 37 38 39 39 39 39 40 40 41 41 42 43 44 45 45 45 46 46 46 48 49 51 53 56 58 60
52 50 48 46 44 43 42 42 41 40 39 38 37 36 36 35 34 34 34 33 33 33 33 32 32 32 32 31 31 30 30 30 31 31 31 32 32 33 33 33 33 32 32 33 33 32 32 32 32 33 34 34 34 35 35 35 35 35 36 37 37 38 38 37 37 37 37 38 40 41 42 43 43 44 44 45 45 45 46 47 48 50 52 54 56
50 48 47 46 45 44 43 42 41 40 38 36 36 35 34 34 33 33 32 32 32 31 31 31 31 30 30 29 29 29 28 28 29 30 30 31 31 32 32 32 32 32 32 32 32 32 32 32 32 33 33 34 34 34 34 34 34 35 35 35 36 36 35 35 35 35 36 37 38 38 39 40 41 42 42 43 43 44 45 45 47 48 50 52 53
49 48 46 45 44 43 41 40 39 37 36 35 34 34 33 32 32 31 31 31 30 30 30 29 29 28 28 27 27 27 27 28 28 29 29 30 30 30 30 30 31 31 31 31 31 32 32 32 33 33 34 34 34 34 34 34 34 34 34 34 34 34 33 33 33 34 34 35 35 36 37 38 38 39 40 40 41 42 42 43 44 45 47 49 51
48 46 45 43 42 41 39 38 36 35 34 33 33 32 32 31 31 30 29 29 29 28 28 27 27 27 26 26 26 27 27 27 27 27 28 28 27 28 28 28 28 28 29 29 30 31 31 32 32 32 33 33 33 33 33 33 33 33 32 32 32 32 32 32 33 33 33 33 34 34 34 35 36 37 38 39 40 41 41 42 43 44 45 46 48
46 44 43 41 40 39 37 36 34 33 32 32 31 31 30 30 29 29 28 28 27 27 26 26 25 25 25 26 26 26 26 26 26 26 26 26 26 26 26 26 26 26 26 26 27 27 28 28 29 29 30 31 32 32 32 32 32 31 31 31 31 31 31 31 32 32 32 32 32 33 33 34 35 36 37 38 38 39 40 41 41 42 43 44 46
43 42 41 40 38 36 35 34 33 32 31 30 30 29 29 28 28 27 27 26 25 25 25 24 25 25 25 26 26 26 26 26 26 26 25 25 25 26 26 26 26 26 26 26 26 26 26 27 28 28 28 29 29 30 30 30 31 31 31 30 30 30 30 30 30 30 30 31 31 32 33 33 34 35 35 36 37 37 38 39 40 40 41 42 44
42 40 39 38 36 34 33 32 31 30 29 28 28 28 27 27 27 26 25 24 24 24 24 24 25 25 25 25 25 25 26 26 26 26 26 26 26 26 26 26 27 27 27 28 27 27 27 27 27 28 28 28 28 29 29 29 30 30 29 29 29 29 29 29 29 29 29 30 30 31 31 32 32 33 33 34 35 35 36 37 38 39 39 40 42
39 38 37 36 34 33 32 31 30 29 28 28 27 27 26 25 25 24 24 24 24 24 24 24 24 25 25 25 25 26 26 26 27 27 28 28 28 28 28 28 27 27 28 28 28 28 27 27 27 28 28 29 29 28 28 28 28 28 28 28 27 27 27 27 27 28 28 28 29 29 30 30 31 32 33 33 34 34 35 36 37 37 38 39 40
38 36 35 34 33 32 31 30 29 28 28 27 26 25 25 24 23 23 23 23 23 23 23 24 25 25 25 25 26 26 27 27 28 28 28 28 28 28 27 27 27 27 27 27 27 27 26 26 27 28 28 28 28 28 28 28 28 28 27 27 26 25 25 26 26 26 27 27 28 28 29 30 30 31 32 33 33 34 34 35 36 36 37 38 39
36 35 33 32 32 31 29 28 28 27 26 26 25 24 23 23 23 23 23 22 22 23 24 24 25 25 26 26 26 26 26 27 27 27 27 27 27 27 26 26 26 26 26 26 26 26 26 27 27 28 28 28 28 28 27 27 27 27 26 25 25 25 25 25 25 25 26 26 27 28 28 29 30 30 31 32 32 33 34 34 35 36 36 37 39
34 33 32 31 30 29 28 27 27 26 25 24 23 23 22 22 22 22 23 23 23 24 24 25 25 26 26 26 26 26 26 26 26 27 27 27 26 26 26 26 26 26 25 25 26 26 26 27 27 27 27 27 27 27 27 27 26 26 25 24 24 24 24 24 23 24 25 25 26 27 27 28 28 29 30 31 31 32 33 33 34 35 36 37 38
33 32 31 30 29 28 28 27 26 25 24 23 22 21 21 22 22 22 23 23 24 24 24 25 26 26 26 26 25 25 25 25 26 26 26 26 26 26 26 25 25 25 25 25 25 26 26 26 25 25 25 25 25 26 26 25 25 24 23 23 23 23 23 23 23 23 24 24 25 25 26 26 27 28 28 29 30 31 31 32 33 34 35 36 37
32 31 31 30 29 28 27 26 25 25 23 22 21 21 21 22 22 23 23 23 23 24 24 25 25 25 25 24 24 24 24 24 24 25 25 25 25 25 25 24 24 24 24 24 24 24 24 23 23 23 23 23 22 23 23 23 23 22 22 21 22 22 22 22 22 23 23 23 23 24 24 25 26 26 27 28 28 29 30 31 32 32 34 35 36
32 32 31 30 29 27 27 26 25 24 22 21 21 22 22 23 23 23 23 23 23 24 24 24 24 24 23 23 22 22 22 22 22 23 23 23 23 23 22 22 22 22 22 22 22 21 21 20 20 20 21 21 20 20 20 20 20 20 20 20 21 21 21 22 22 22 22 22 22 23 23 24 24 25 25 26 27 28 29 29 30 31 33 34 35
32 31 30 29 28 27 26 25 24 23 22 22 22 22 23 23 23 23 23 23 23 24 24 23 23 22 22 21 21 20 20 20 21 21 21 20 19 19 19 19 20 20 20 20 20 19 19 18 18 18 18 19 19 19 18 18 19 19 19 19 20 21 21 21 21 21 21 21 21 21 22 22 23 23 24 25 25 26 27 28 29 30 31 32 33
31 30 29 28 27 26 25 24 23 23 22 22 22 22 22 22 22 22 23 23 23 23 23 23 22 22 21 20 19 19 19 20 19 19 18 18 17 17 17 17 17 17 18 18 18 18 18 18 17 17 17 18 18 18 18 18 18 18 19 19 20 20 20 20 20 20 20 20 20 20 21 21 21 22 22 23 24 24 25 26 26 27 28 29 30
30 29 28 27 26 25 24 24 23 23 23 23 23 23 23 22 23 23 23 23 23 22 22 22 21 21 20 19 19 19 19 18 18 17 17 16 16 16 16 16 16 16 16 16 16 16 17 17 17 17 17 17 18 18 18 19 19 19 19 19 19 19 19 19 19 19 18 18 19 19 19 20 20 20 21 21 22 22 22 22 23 24 24 25 25
30 28 28 27 26 25 25 24 24 24 24 24 23 23 23 23 23 23 23 22 22 22 21 21 20 20 19 19 19 18 18 17 17 17 16 16 15 15 15 15 15 15 15 15 16 16 16 16 16 16 16 16 16 16 17 18 18 18 18 18 18 18 18 18 18 17 17 18 18 18 18 19 19 19 19 19 20 20 20 19 19 19 19 19 18
29 29 28 27 27 26 26 25 25 24 24 24 23 23 23 22 22 22 22 21 21 21 21 20 20 19 19 19 19 18 17 17 17 16 16 15 15 15 14 14 14 14 14 15 15 16 16 16 16 16 15 15 15 15 16 16 16 17 17 17 17 17 16 16 16 17 17 17 17 17 17 17 17 17 17 18 17 17 16 16 16 15 14 13 12
29 28 28 28 27 27 26 26 25 25 25 24 23 23 22 22 21 21 21 21 21 20 20 19 19 19 19 18 18 17 17 16 16 15 15 15 15 14 14 14 14 14 14 14 14 15 15 16 16 16 15 15 15 15 15 15 15 15 16 16 15 15 15 16 16 16 16 16 16 16 16 16 16 16 16 16 15 14 14 13 12 11 10 9 9
29 28 28 27 27 27 26 26 26 26 25 24 23 23 22 22 22 22 22 21 20 20 19 19 19 18 18 17 17 17 17 16 15 15 15 15 15 15 14 14 14 13 13 14 14 14 15 15 15 15 15 15 15 15 15 15 15 15 15 14 14 15 15 15 15 15 15 15 15 15 15 15 15 14 14 14 13 12 12 12 11 9 8 7 7
29 29 28 27 27 27 27 26 26 25 25 24 24 24 23 23 23 22 21 21 20 19 19 19 19 18 17 17 17 17 16 16 15 15 15 15 15 15 14 14 13 13 13 13 13 13 14 14 14 14 14 14 14 14 14 14 14 14 14 14 14 14 14 14 14 14 14 14 14 14 14 14 13 13 13 12 11 11 12 11 10 9 8 7 6
30 29 28 28 27 27 27 26 26 25 25 24 24 24 24 23 23 22 21 21 20 20 19 19 18 18 17 17 17 16 16 16 15 15 15 15 15 15 14 14 13 13 13 12 12 12 13 13 13 13 13 13 13 13 13 13 13 13 13 13 13 13 13 13 12 12 12 12 12 12 12 12 12 12 11 11 11 11 12 12 11 9 9 8 6
30 29 28 28 28 27 27 26 26 25 25 25 24 24 24 23 23 22 21 21 20 20 20 19 18 18 17 17 17 16 16 16 15 15 15 15 15 15 14 14 13 13 12 12 12 12 12 12 12 12 12 12 12 12 12 12 12 12 12 12 12 12 12 11 11 11 11 11 11 11 11 10 10 10 10 11 11 11 12 12 11 10 9 8 7
30 29 29 28 28 28 27 27 26 26 26 25 25 24 24 23 23 22 22 21 21 20 20 19 19 18 17 17 17 16 16 15 15 15 14 14 14 14 14 14 13 13 12 12 11 11 11 11 12 12 12 12 12 12 11 11 11 11 10 10 10 10 10 10 10 10 10 10 10 9 9 9 9 9 10 11 11 11 11 11 11 10 10 9 8
30 29 29 29 28 28 28 27 27 26 26 25 25 24 24 23 23 22 22 22 21 20 20 19 19 18 17 17 17 16 16 15 15 15 14 14 14 14 14 14 13 13 12 11 11 11 11 11 11 11 11 11 11 11 11 10 10 9 9 9 9 9 9 9 9 8 8 8 8 8 7 8 8 9 10 10 11 11 11 10 10 10 9 9 8
30 30 29 29 29 29 28 27 27 26 26 25 24 24 23 23 23 22 21 21 21 20 20 19 19 18 18 17 17 16 16 15 15 14 14 14 14 14 14 13 13 12 12 11 11 11 10 10 11 11 11 11 11 10 10 9 9 9 8 8 8 8 8 8 8 7 7 7 7 7 7 8 8 9 9 10 10 10 10 10 9 9 9 8 8
31 30 30 29 29 28 27 27 26 25 24 24 23 22 22 22 21 21 20 20 20 20 19 19 19 18 18 17 17 16 16 15 15 15 14 14 13 13 13 13 13 12 12 11 11 11 10 10 10 11 10 10 10 10 9 9 8 8 7 7 7 7 7 6 6 6 6 6 6 7 7 8 8 9 9 9 9 9 9 9 9 9 8 8 7
31 30 29 29 28 27 26 25 24 23 23 22 21 21 20 20 19 19 19 18 18 18 18 19 18 18 18 17 17 16 16 15 15 15 14 13 13 13 13 13 12 12 12 11 11 11 10 10 10 10 10 10 10 9 9 8 8 7 7 6 6 6 6 6 5 5 5 6 7 7 8 8 9 9 10 9 9 9 9 9 9 8 8 8 7
Wind_Direction
303 303 302 302 301 301 301 301 300 300 300 299 299 299 299 299 298 298 297 297 297 296 294 292 290 287 284 281 279 278 277 275 271 267 266 264 264 263 262 261 260 258 257 256 255 254 252 251 251 250 250 250 250 250 249 248 248 247 246 245 245 244 244 243 242 241 241 242 242 242 242 242 242 242 241 241 242 242 242 241 241 241 241 240 239
303 303 303 302 302 301 301 301 301 300 300 299 299 299 299 298 297 297 297 296 295 294 293 291 289 286 284 281 279 277 276 275 271 267 265 265 264 263 263 262 261 260 259 257 256 255 254 253 252 251 251 251 251 251 250 250 249 248 248 247 246 245 245 244 243 243 242 242 243 243 243 242 242 242 242 242 241 242 242 242 241 241 241 241 240
304 303 303 302 302 302 301 301 300 300 299 299 298 298 298 297 297 296 296 295 294 292 291 290 288 285 283 281 279 277 275 274 271 267 265 264 264 264 263 263 262 261 260 258 257 256 255 254 253 253 252 252 251 251 251 251 251 250 249 248 247 247 246 245 245 244 243 243 243 243 243 243 243 242 242 242 242 242 241 241 241 241 241 241 240
304 303 303 302 302 302 301 301 300 299 299 298 298 298 297 296 296 295 295 294 292 291 290 289 287 284 282 280 278 276 274 273 271 268 265 264 264 264 264 263 262 261 261 260 259 258 256 256 255 254 253 253 253 252 251 252 252 252 251 250 249 248 247 246 245 245 244 243 243 243 244 244 244 243 242 242 241 241 241 241 241 241 241 240 240
304 303 303 302 302 302 301 301 300 299 299 298 297 297 296 295 295 294 293 293 291 289 288 287 286 283 281 279 277 275 274 272 271 268 265 264 263 263 263 263 263 262 261 261 260 259 258 258 257 256 255 255 254 253 252 252 252 252 252 252 251 250 249 248 246 245 244 243 243 244 244 244 244 243 242 241 241 241 241 241 241 241 241 240 240
305 303 302 302 301 301 301 300 300 299 298 298 297 297 296 295 294 293 292 291 289 288 287 286 284 282 280 278 276 274 273 272 270 269 266 264 263 262 262 262 262 262 262 261 261 260 260 260 259 258 257 256 256 255 254 253 253 253 252 252 252 251 250 249 248 246 245 244 244 244 244 244 244 243 242 241 241 241 241 241 241 240 240 240 240
305 303 302 301 301 301 300 300 299 299 298 297 297 296 295 294 293 292 290 289 288 287 286 284 283 281 279 277 275 274 272 271 270 268 266 264 263 262 261 261 261 261 261 261 261 261 261 261 261 260 259 259 258 257 256 255 254 253 253 252 252 252 250 249 248 247 246 245 244 244 244 243 243 242 241 241 241 240 240 240 240 240 239 239 240
304 303 301 301 301 301 300 300 299 298 298 297 296 296 295 293 292 291 289 287 286 285 284 283 282 280 278 276 275 273 272 270 269 268 266 264 263 262 261 261 261 261 261 261 261 262 262 262 262 262 261 261 260 259 258 256 255 255 254 253 252 251 250 249 248 247 247 246 244 244 243 242 242 242 241 241 241 240 240 239 240 240 240 240 239
304 302 301 300 300 300 300 300 299 298 297 297 296 295 294 292 291 289 288 286 285 284 283 282 280 279 277 276 275 273 271 270 269 268 267 265 264 263 262 261 261 261 261 262 262 262 263 263 263 263 263 262 261 261 259 258 256 255 254 252 251 250 249 248 248 247 247 246 245 244 243 242 242 241 241 241 241 241 240 240 240 240 240 240 239
304 302 301 300 300 300 300 299 298 297 297 296 295 294 292 291 290 288 286 284 283 282 281 281 280 278 277 275 274 272 271 270 270 269 268 266 265 264 263 262 262 262 262 262 263 263 263 263 264 263 263 263 262 261 260 258 256 255 253 252 251 250 249 249 248 248 247 247 246 244 243 242 241 241 241 241 240 240 240 240 240 239 239 240 239
304 302 301 301 301 300 300 299 298 297 297 296 294 293 292 290 289 287 285 283 282 281 280 280 279 277 276 275 274 272 271 270 270 269 268 267 265 264 263 262 262 262 262 262 263 263 264 264 264 264 263 263 262 260 259 258 256 255 254 252 251 250 249 249 248 248 247 247 246 245 244 243 242 242 241 241 241 241 241 241 241 240 240 240 239
304 303 302 301 301 300 299 298 298 297 296 295 294 293 291 290 289 287 285 283 282 281 280 279 278 277 276 274 273 272 271 270 270 269 268 267 266 265 264 263 262 262 262 262 263 263 264 264 264 264 263 263 261 260 259 257 256 255 254 253 252 250 250 249 249 248 248 247 246 246 245 244 243 242 241 241 242 242 241 241 241 241 241 240 239
305 304 303 302 301 299 298 298 297 296 295 294 293 292 290 289 288 286 285 283 282 281 280 279 277 276 275 274 273 272 271 270 270 269 268 267 266 265 264 263 262 262 262 262 263 263 264 264 264 263 263 261 260 259 258 257 256 255 254 253 252 251 250 250 249 248 248 248 247 246 245 245 244 243 242 242 242 242 242 241 241 241 241 240 239
306 305 304 303 301 300 298 298 297 296 295 293 292 290 289 288 287 285 284 282 281 281 280 278 277 276 275 274 273 271 271 270 269 268 268 267 266 265 264 264 263 263 263 263 263 263 263 263 263 263 262 261 260 259 258 257 256 255 254 253 252 252 251 250 249 249 248 248 247 247 246 245 244 244 243 243 243 243 243 242 242 242 241 241 240
307 306 304 303 301 300 299 298 297 295 294 292 290 289 288 287 286 285 283 282 281 280 279 278 277 276 275 274 273 271 270 269 269 268 268 267 267 266 265 264 264 263 263 263 263 263 263 263 263 262 261 260 259 258 257 257 256 255 254 254 253 252 251 250 250 250 249 248 248 248 247 246 246 246 246 245 245 244 243 243 243 242 242 242 241
307 306 304 303 301 300 298 297 296 294 293 291 290 289 288 287 286 284 283 282 281 280 279 278 277 276 275 274 272 271 270 269 268 268 268 268 267 266 265 264 264 264 264 264 264 263 263 263 262 261 260 260 259 258 257 256 256 255 255 254 254 253 253 252 251 251 250 249 249 248 248 248 248 247 247 246 245 244 243 243 242 242 242 242 241
307 306 305 303 302 300 298 297 295 295 293 291 289 289 288 287 285 284 282 282 281 280 279 278 277 276 275 273 272 270 269 269 268 268 268 268 267 266 265 265 265 265 264 264 264 263 262 262 261 260 260 259 258 258 257 256 256 256 255 255 254 254 253 253 252 251 250 250 249 249 248 248 248 248 247 246 245 244 243 242 241 241 241 241 241
308 307 305 303 301 300 298 297 296 294 293 291 290 289 288 286 285 284 283 282 281 279 278 277 277 276 274 273 271 270 269 269 268 268 268 268 268 267 266 266 265 265 265 264 263 263 262 261 260 260 259 259 259 258 257 256 256 256 255 255 254 254 253 253 253 252 251 250 250 249 249 249 248 248 247 246 245 244 244 243 242 241 241 241 241
309 307 305 303 302 301 299 297 296 294 293 292 291 290 288 287 286 284 283 281 280 279 278 277 276 275 273 272 271 270 269 268 268 268 269 269 268 267 267 266 266 265 264 264 263 262 261 260 260 259 259 259 259 258 257 257 256 256 255 255 255 254 254 254 253 252 251 251 250 250 249 249 249 248 248 247 246 246 245 244 244 243 242 241 241
309 307 305 304 303 302 300 297 296 294 293 292 291 290 289 288 286 284 282 281 279 279 278 277 276 274 273 272 271 270 269 268 268 269 269 269 269 268 267 266 266 265 264 263 262 261 260 260 259 259 259 259 258 258 258 257 256 256 255 255 255 255 255 255 254 253 252 251 251 251 250 250 249 249 248 248 247 246 246 245 244 244 243 242 241
309 307 306 306 304 302 300 298 297 296 294 293 292 291 289 287 285 283 282 280 279 279 278 277 276 274 273 272 271 270 269 268 268 269 269 269 269 268 267 266 265 265 263 262 261 260 260 260 259 259 259 259 258 258 258 258 257 256 256 255 255 255 255 254 254 253 252 252 252 251 251 250 250 249 249 248 248 247 247 246 245 244 244 243 242
310 308 307 306 304 302 300 299 298 297 295 294 292 290 289 287 285 283 282 281 280 279 278 277 275 274 273 273 271 270 269 269 269 269 269 269 269 268 267 266 265 264 263 262 261 260 260 260 259 259 259 258 258 258 258 258 258 257 257 257 256 256 255 255 254 254 252 252 251 251 250 250 249 249 249 248 248 248 247 247 246 245 244 243 242
310 309 307 305 303 301 300 299 298 297 295 293 291 289 288 287 285 284 283 281 280 279 277 276 275 274 273 272 271 270 270 269 269 269 269 269 269 269 268 267 266 264 263 261 260 260 259 259 259 259 259 258 258 258 258 258 258 258 258 257 257 256 255 255 255 254 254 253 253 252 250 249 248 248 248 248 248 248 248 247 246 246 245 244 244
310 308 307 304 302 301 300 299 297 296 294 292 290 289 288 287 285 284 283 281 279 278 277 276 275 273 272 271 270 270 270 270 270 270 270 270 269 269 268 267 266 265 263 262 261 260 259 259 259 259 258 258 258 259 259 259 259 259 259 258 258 257 256 255 255 255 255 254 253 252 250 248 248 248 248 247 247 247 247 247 247 246 246 245 245
309 308 306 305 303 302 300 298 297 295 292 290 290 289 287 286 285 284 283 281 279 278 276 275 274 272 271 270 270 270 270 270 270 270 270 270 270 269 268 267 266 265 263 262 261 260 259 259 259 259 259 259 259 259 259 260 260 260 260 259 258 257 256 256 255 255 255 254 254 253 251 249 248 248 248 248 248 248 248 248 248 247 247 247 246
309 308 307 305 304 302 300 298 296 293 291 290 289 288 287 286 285 284 282 280 279 277 276 274 273 272 271 271 271 271 271 271 271 271 270 270 270 269 268 268 267 266 265 263 262 261 260 260 260 259 259 259 258 258 259 259 259 259 259 258 257 256 256 255 255 254 254 254 253 252 251 250 249 249 249 248 248 248 248 249 249 248 248 248 248
310 309 307 306 305 303 301 298 296 294 292 291 290 288 286 285 284 283 281 280 278 277 275 274 273 272 272 272 272 272 272 272 271 271 270 269 269 268 268 267 267 266 265 264 263 262 261 261 260 260 260 260 259 258 258 258 258 258 258 257 256 255 255 255 254 253 252 252 252 252 252 252 251 251 250 250 249 249 249 249 249 249 248 248 248
310 309 308 307 306 303 301 299 297 295 293 291 290 288 286 285 284 283 281 279 278 276 275 274 273 273 273 273 273 273 272 272 271 270 270 269 268 268 267 267 266 265 264 263 263 263 263 262 262 261 261 261 260 258 258 257 256 256 256 256 255 254 254 253 252 252 252 252 253 254 254 253 253 252 251 250 250 250 250 250 250 250 250 249 248
311 310 309 308 306 304 302 300 298 296 293 291 290 288 287 285 284 282 281 279 277 276 275 274 274 274 274 274 274 273 272 272 272 271 270 269 269 269 268 267 266 265 264 264 264 264 264 264 263 262 261 261 260 259 258 257 256 255 254 253 253 252 251 251 251 252 253 253 254 254 254 254 253 252 252 251 251 251 251 250 250 251 250 250 249
311 311 310 308 307 305 303 301 299 297 294 292 290 288 287 285 283 282 280 279 278 277 276 275 275 276 275 274 273 272 272 272 272 272 271 270 270 269 269 268 267 266 265 265 265 265 264 264 263 262 261 260 259 258 257 255 254 253 252 251 250 250 249 250 251 252 253 254 255 255 254 254 254 253 253 252 252 252 251 251 251 251 250 250 250
312 311 310 309 307 305 303 301 299 297 295 293 291 288 287 285 283 282 281 280 279 277 277 277 277 277 276 276 274 274 273 273 273 273 272 271 270 269 268 267 266 266 266 266 266 265 265 264 263 262 260 259 257 256 254 253 252 250 248 248 248 248 249 250 251 253 255 255 256 256 256 255 255 254 253 253 252 252 252 251 251 251 251 251 251
313 312 311 309 308 306 304 302 300 297 295 293 291 288 286 285 284 282 281 280 280 280 280 280 279 279 278 277 276 275 274 274 273 273 272 272 270 269 267 266 265 265 265 265 265 265 264 264 263 262 260 258 256 253 252 252 250 248 246 246 247 248 249 250 252 254 256 257 257 257 257 257 256 255 254 253 253 252 252 252 252 252 253 253 253
314 313 312 311 309 308 306 303 301 299 296 293 290 288 286 285 284 283 283 282 282 282 282 282 282 281 280 279 277 276 275 274 274 273 272 271 270 268 266 265 264 265 265 265 265 265 264 264 263 261 259 257 254 251 251 251 249 246 244 244 244 246 248 251 254 256 258 258 258 258 257 257 256 255 255 254 254 254 254 254 254 254 254 254 255
314 313 313 312 310 309 307 305 303 300 297 293 291 289 287 286 285 285 284 284 284 283 283 283 283 282 281 280 278 276 275 275 274 274 272 271 270 268 267 265 264 264 265 265 265 265 265 263 262 259 256 255 252 250 249 249 245 242 241 241 242 245 249 252 255 258 260 260 259 258 258 258 257 257 257 256 255 255 255 255 255 255 256 256 256
314 313 312 311 310 308 307 305 303 300 297 294 292 290 288 287 287 286 285 285 284 284 285 284 284 283 282 279 277 276 276 275 275 274 274 273 271 269 266 264 263 264 264 264 264 264 263 262 259 255 252 252 251 249 247 244 241 239 240 241 242 245 250 253 256 259 260 260 260 260 260 259 259 258 258 258 257 257 256 256 256 257 258 258 258
314 313 312 311 310 308 307 305 302 300 298 295 293 292 290 289 288 287 286 285 285 285 286 285 284 284 282 279 277 277 276 275 275 276 276 274 272 268 265 262 262 262 263 263 262 262 261 259 256 253 251 251 250 248 245 242 241 240 241 241 242 246 250 254 257 259 260 260 261 262 261 261 260 260 259 259 258 258 258 258 259 260 260 261 261
314 313 312 311 309 308 307 306 303 301 299 296 295 293 292 291 289 288 287 286 286 286 285 285 284 283 281 278 277 276 275 275 277 278 276 273 271 267 263 261 261 261 261 261 260 259 258 256 254 252 250 250 249 247 246 245 243 243 242 242 244 248 252 255 257 259 259 261 262 263 263 262 262 261 260 260 259 260 260 261 262 263 264 264 264
313 313 312 311 310 308 307 306 304 301 300 298 296 295 294 292 290 289 288 287 286 285 284 284 283 281 279 277 276 275 275 276 277 277 274 271 267 263 261 261 261 261 261 259 258 256 255 255 253 252 250 249 248 247 246 245 244 245 245 245 247 249 253 255 257 257 258 260 262 264 264 263 263 262 261 260 261 262 263 264 265 266 267 267 266
313 313 312 311 311 309 308 306 304 302 300 299 298 296 294 293 291 290 289 287 286 285 284 283 282 279 277 276 275 275 275 274 275 275 273 269 265 261 260 260 260 260 259 257 255 254 254 253 253 252 250 248 247 247 246 245 246 247 247 247 248 250 252 253 255 256 257 260 263 264 264 264 264 263 262 262 263 264 264 265 267 269 270 269 267
313 312 311 310 309 308 307 305 303 302 300 299 298 296 294 293 292 291 289 288 286 285 284 283 280 278 276 276 275 274 272 272 272 273 271 268 265 262 261 259 259 259 258 256 253 253 252 252 251 251 249 246 245 245 244 244 244 245 246 246 247 249 250 251 253 255 258 260 263 265 265 265 265 264 263 263 263 262 262 263 265 267 268 266 263
312 311 309 308 308 307 306 304 303 302 301 299 298 296 295 294 293 291 290 288 287 285 284 281 279 277 276 276 275 272 269 270 271 270 267 265 264 263 261 259 258 257 256 256 254 252 251 251 250 249 247 244 243 242 242 242 241 242 243 245 246 247 249 250 253 256 258 261 263 265 265 265 265 264 262 261 259 258 258 258 259 260 260 259 255
313 311 310 308 307 306 305 304 302 301 300 298 297 296 294 294 293 291 290 288 286 284 282 280 278 277 277 276 273 270 269 269 268 266 263 262 262 261 259 258 257 255 254 255 255 253 251 249 248 247 245 244 243 241 240 240 240 240 242 244 246 247 249 251 253 256 259 261 263 265 265 264 263 262 259 256 254 252 251 248 246 245 247 247 246
314 312 310 309 307 306 304 303 302 300 299 297 296 294 293 293 292 291 289 288 285 283 281 279 279 278 276 274 271 269 268 268 265 263 262 260 259 258 258 257 256 254 253 253 254 253 251 248 246 245 243 242 242 241 240 238 238 239 241 244 246 248 250 252 254 256 259 261 263 264 264 262 261 259 255 251 247 243 238 233 229 228 231 233 233
314 312 310 309 308 306 304 303 302 300 299 297 295 293 292 292 291 289 288 286 284 282 280 279 278 277 274 272 270 268 267 266 264 262 261 259 257 256 255 255 255 255 253 253 253 252 250 247 244 242 240 240 240 240 238 236 236 238 241 243 246 248 250 252 254 256 258 260 262 262 261 259 257 254 249 243 236 230 225 220 216 215 218 219 218
313 312 310 309 308 307 306 304 302 301 299 297 295 293 292 291 289 288 286 283 281 280 279 278 276 275 273 271 269 267 265 265 263 261 259 257 255 254 253 253 254 254 254 253 252 250 248 245 241 238 237 237 237 237 235 234 235 237 240 242 245 247 250 252 254 256 259 259 259 259 258 256 252 247 239 230 222 218 216 212 209 209 211 213 214
313 312 311 310 309 307 306 304 303 301 299 297 295 293 292 290 288 286 284 282 280 278 277 276 274 272 271 269 267 265 264 263 262 260 257 255 253 252 251 251 251 252 252 251 249 248 245 241 237 234 234 233 232 231 231 232 234 237 240 242 244 247 250 251 253 255 257 257 256 256 254 249 242 235 227 218 213 212 211 209 209 210 211 212 214
314 312 311 310 308 307 306 304 303 301 299 297 295 293 291 289 287 285 283 282 279 277 276 274 272 270 268 267 265 263 261 260 259 258 256 253 251 249 249 248 248 249 249 247 245 244 241 236 232 229 229 228 227 227 228 230 233 236 238 241 244 247 250 251 251 252 253 254 254 252 245 236 228 224 217 210 207 206 206 206 209 212 214 214 214
314 313 312 310 309 308 306 305 303 301 299 297 294 292 290 288 286 284 282 280 278 276 274 272 270 268 266 264 262 260 258 257 257 256 253 250 248 247 246 245 245 246 245 243 240 238 236 232 227 224 224 224 224 224 225 228 231 233 234 237 241 244 247 248 247 245 247 249 247 239 229 221 217 214 209 204 202 202 202 204 207 211 213 212 212
315 314 312 311 310 308 307 305 303 302 300 297 295 292 290 288 286 284 281 279 276 273 271 269 268 266 264 261 260 258 256 254 253 252 250 248 246 245 243 242 241 242 240 237 234 233 231 227 223 220 220 221 221 221 222 225 226 227 229 232 236 239 242 241 239 238 240 239 230 218 211 210 207 203 198 195 195 196 197 199 202 204 205 204 204
315 314 312 311 310 309 308 306 305 303 301 299 297 294 292 289 287 284 281 278 275 272 269 267 266 264 261 259 257 255 253 251 249 248 247 246 244 242 240 238 237 236 235 231 228 227 225 222 218 216 216 216 216 217 218 219 220 221 222 226 229 232 233 231 228 230 230 222 208 200 199 199 196 192 188 186 186 188 189 190 192 193 193 193 193
315 314 313 312 311 310 309 308 306 305 303 301 299 297 294 292 289 286 282 279 275 272 269 266 263 260 258 257 254 251 249 247 246 244 243 242 241 238 236 233 232 231 229 226 223 220 219 216 213 211 211 210 209 210 210 211 211 211 213 216 217 219 219 216 215 216 213 200 190 188 190 189 186 183 181 180 180 181 181 180 181 182 182 181 180